User: anonymous   Login
Location: Bodest
(46.3000°N, 22.5667°E)
Time: 23:11:50
(UTC+00:00)
Language:

CSL-04 Rocket - Orbit

View from above orbital plane
View from above orbital plane
View from above satellite
View from above satellite

Ground track
Ground track

The orbit data is extracted from the following two-line orbital elements,

1 25732U 99025C   22020.59890213 -.00000025  00000-0  95658-5 0  9993
2 25732  98.8764  62.2411 0037116 351.5242 119.6169 14.17711566174306
Epoch (UTC): 20 January 2022 14:22:25
Eccentricity: 0.0037116
inclination: 98.8764°
perigee height: 806 km
apogee height: 860 km
right ascension of ascending node: 62.2411°
argument of perigee: 351.5242°
revolutions per day: 14.17711566
mean anomaly at epoch: 119.6169°
orbit number at epoch: 17430

The dashed part of the orbit path shows where the satellite is in the earth's shadow,  

DLR